User: anonymous   Login
Location: Unspecified
(0.0000°N, 0.0000°E)
Time: 21:47:16
(UTC+00:00)
Language:

Gonets-D1 - Orbit

View from above orbital plane
View from above orbital plane
View from above satellite
View from above satellite

Ground track
Ground track

The orbit data is extracted from the following two-line orbital elements,

1 23787U 96009A   17117.76465415 +.00000047 +00000-0 +19620-3 0  9998
2 23787 082.5733 275.7811 0011502 069.3577 290.8746 12.64031047977641
Epoch (UTC): 27 April 2017 18:21:06
Eccentricity: 0.0011502
inclination: 82.5733°
perigee height: 1397 km
apogee height: 1415 km
right ascension of ascending node: 275.7811°
argument of perigee: 69.3577°
revolutions per day: 12.64031047
mean anomaly at epoch: 290.8746°
orbit number at epoch: 97764

The dashed part of the orbit path shows where the satellite is in the earth's shadow,  

DLR